EN

Hourly Weather Yasenka-Stets'ova

Today, 26 October, Monday

Time Temperature Precipitation Wind Pressure Humidity
00:00 +9°C° 0 mm 1 mps 691 mmHg 95%
01:00 +9°C° 0 mm 1 mps 690 mmHg 95%
02:00 +8°C° 0 mm 1 mps 690 mmHg 95%
03:00 +7°C° 0 mm 2 mps 690 mmHg 95%
04:00 +7°C° 0 mm 2 mps 690 mmHg 95%
05:00 +7°C° 0 mm 2 mps 690 mmHg 95%
06:00 +7°C° 0 mm 2 mps 690 mmHg 95%
07:00 +7°C° 0 mm 2 mps 690 mmHg 95%
08:00 +8°C° 0 mm 2 mps 690 mmHg 95%
09:00 +9°C° 0 mm 2 mps 690 mmHg 90%
10:00 +10°C° 0 mm 3 mps 690 mmHg 85%
11:00 +12°C° 0 mm 3 mps 691 mmHg 79%
12:00 +12°C° 0 mm 3 mps 691 mmHg 77%
13:00 +13°C° 0 mm 3 mps 691 mmHg 75%
14:00 +13°C° 0 mm 3 mps 691 mmHg 72%
15:00 +12°C° 0 mm 3 mps 690 mmHg 78%
16:00 +12°C° 0 mm 2 mps 690 mmHg 83%
17:00 +10°C° 0 mm 2 mps 690 mmHg 88%
18:00 +9°C° 0 mm 2 mps 690 mmHg 90%
19:00 +9°C° 0 mm 2 mps 690 mmHg 92%
20:00 +8°C° 0 mm 2 mps 690 mmHg 94%
21:00 +8°C° 0 mm 2 mps 690 mmHg 94%
22:00 +8°C° 0 mm 2 mps 690 mmHg 94%
23:00 +8°C° 0 mm 2 mps 690 mmHg 94%

Tomorrow, 27 October, Tuesday

Time Temperature Precipitation Wind Pressure Humidity
00:00 +8°C° 0 mm 2 mps 690 mmHg 93%
01:00 +8°C° 0 mm 2 mps 690 mmHg 93%
02:00 +8°C° 0 mm 2 mps 690 mmHg 93%
03:00 +8°C° 0 mm 2 mps 690 mmHg 93%
04:00 +7°C° 0 mm 2 mps 690 mmHg 93%
05:00 +7°C° 0 mm 2 mps 690 mmHg 93%
06:00 +7°C° 0 mm 2 mps 691 mmHg 93%
07:00 +7°C° 0 mm 2 mps 691 mmHg 93%
08:00 +7°C° 0 mm 2 mps 691 mmHg 92%
09:00 +9°C° 0 mm 2 mps 691 mmHg 84%
10:00 +13°C° 0 mm 2 mps 691 mmHg 76%
11:00 +15°C° 0 mm 2 mps 692 mmHg 68%
12:00 +15°C° 0 mm 2 mps 692 mmHg 65%
13:00 +16°C° 0 mm 2 mps 692 mmHg 62%
14:00 +16°C° 0 mm 1 mps 692 mmHg 59%
15:00 +15°C° 0 mm 1 mps 691 mmHg 66%
16:00 +13°C° 0 mm 1 mps 691 mmHg 73%
17:00 +12°C° 0 mm 1 mps 690 mmHg 81%
18:00 +11°C° 0 mm 1 mps 690 mmHg 83%
19:00 +10°C° 0 mm 1 mps 690 mmHg 85%
20:00 +10°C° 0 mm 1 mps 690 mmHg 86%
21:00 +9°C° 0 mm 1 mps 690 mmHg 87%
22:00 +9°C° 0 mm 1 mps 691 mmHg 87%
23:00 +9°C° 0 mm 1 mps 691 mmHg 87%

Day after tomorrow, 28 October, Wednesday

Time Temperature Precipitation Wind Pressure Humidity
00:00 +9°C° 0 mm 1 mps 691 mmHg 86%
01:00 +8°C° 0 mm 1 mps 691 mmHg 86%
02:00 +8°C° 0 mm 1 mps 691 mmHg 86%
03:00 +8°C° 0 mm 1 mps 691 mmHg 86%
04:00 +8°C° 0 mm 1 mps 691 mmHg 86%
05:00 +8°C° 0 mm 1 mps 691 mmHg 85%
06:00 +8°C° 0 mm 1 mps 691 mmHg 84%
07:00 +8°C° 0 mm 1 mps 691 mmHg 82%
08:00 +8°C° 0 mm 1 mps 691 mmHg 81%
09:00 +9°C° 0 mm 0 mps 692 mmHg 74%
10:00 +11°C° 0 mm 0 mps 692 mmHg 67%
11:00 +13°C° 0 mm 0 mps 693 mmHg 61%
12:00 +14°C° 0 mm 0 mps 693 mmHg 59%
13:00 +14°C° 0 mm 0 mps 693 mmHg 57%
14:00 +16°C° 0 mm 1 mps 693 mmHg 55%
15:00 +13°C° 0 mm 0 mps 692 mmHg 63%
16:00 +11°C° 0 mm 0 mps 692 mmHg 71%
17:00 +10°C° 0 mm 0 mps 692 mmHg 79%
18:00 +9°C° 0 mm 0 mps 692 mmHg 81%
19:00 +9°C° 0 mm 0 mps 692 mmHg 84%
20:00 +9°C° 0 mm 1 mps 692 mmHg 86%
21:00 +9°C° 0 mm 1 mps 692 mmHg 86%
22:00 +9°C° 0 mm 1 mps 692 mmHg 87%
23:00 +8°C° 0 mm 1 mps 692 mmHg 87%

29 October, Thursday

Time Temperature Precipitation Wind Pressure Humidity
00:00 +8°C° 0 mm 1 mps 692 mmHg 88%
01:00 +8°C° 0 mm 1 mps 692 mmHg 89%
02:00 +8°C° 0 mm 1 mps 692 mmHg 89%
03:00 +7°C° 0 mm 1 mps 692 mmHg 90%
04:00 +7°C° 0 mm 1 mps 692 mmHg 90%
05:00 +7°C° 0 mm 1 mps 692 mmHg 90%
06:00 +7°C° 0 mm 1 mps 692 mmHg 89%
07:00 +7°C° 0 mm 1 mps 692 mmHg 89%
08:00 +8°C° 0 mm 1 mps 693 mmHg 88%
09:00 +9°C° 0 mm 1 mps 693 mmHg 82%
10:00 +11°C° 0 mm 1 mps 694 mmHg 75%
11:00 +13°C° 0 mm 1 mps 694 mmHg 68%
12:00 +13°C° 0 mm 1 mps 694 mmHg 68%
13:00 +14°C° 0 mm 1 mps 694 mmHg 67%
14:00 +14°C° 0 mm 2 mps 694 mmHg 66%
15:00 +13°C° 0 mm 1 mps 694 mmHg 74%
16:00 +12°C° 0 mm 1 mps 694 mmHg 81%
17:00 +11°C° 0 mm 1 mps 694 mmHg 89%
18:00 +10°C° 0 mm 1 mps 694 mmHg 90%
19:00 +9°C° 0 mm 1 mps 695 mmHg 91%
20:00 +9°C° 0 mm 1 mps 695 mmHg 93%
21:00 +9°C° 0 mm 1 mps 695 mmHg 93%
22:00 +8°C° 0 mm 1 mps 696 mmHg 94%
23:00 +8°C° 0 mm 1 mps 696 mmHg 94%

30 October, Friday

Time Temperature Precipitation Wind Pressure Humidity
00:00 +8°C° 0 mm 1 mps 696 mmHg 94%
01:00 +8°C° 0 mm 1 mps 696 mmHg 94%
02:00 +7°C° 0 mm 1 mps 696 mmHg 94%
03:00 +7°C° 0 mm 1 mps 696 mmHg 94%
04:00 +7°C° 0 mm 1 mps 697 mmHg 94%
05:00 +7°C° 0 mm 1 mps 697 mmHg 94%
06:00 +8°C° 0 mm 1 mps 697 mmHg 94%
07:00 +8°C° 0 mm 1 mps 697 mmHg 93%
08:00 +8°C° 0 mm 1 mps 697 mmHg 93%
09:00 +9°C° 0 mm 1 mps 698 mmHg 88%
10:00 +10°C° 0 mm 1 mps 698 mmHg 82%
11:00 +12°C° 0 mm 1 mps 698 mmHg 77%
12:00 +12°C° 0 mm 2 mps 698 mmHg 74%
13:00 +12°C° 0 mm 2 mps 698 mmHg 72%
14:00 +13°C° 0 mm 2 mps 698 mmHg 69%
15:00 +12°C° 0 mm 2 mps 698 mmHg 75%
16:00 +10°C° 0 mm 2 mps 698 mmHg 81%
17:00 +8°C° 0 mm 2 mps 698 mmHg 87%
18:00 +8°C° 0 mm 2 mps 698 mmHg 89%
19:00 +7°C° 0 mm 2 mps 698 mmHg 91%
20:00 +7°C° 0 mm 2 mps 698 mmHg 93%
21:00 +6°C° 0 mm 2 mps 698 mmHg 92%
22:00 +6°C° 0 mm 2 mps 698 mmHg 92%
23:00 +6°C° 0 mm 2 mps 698 mmHg 91%

31 October, Saturday

Time Temperature Precipitation Wind Pressure Humidity
00:00 +6°C° 0 mm 2 mps 698 mmHg 91%
01:00 +6°C° 0 mm 2 mps 698 mmHg 90%
02:00 +6°C° 0 mm 2 mps 698 mmHg 90%
03:00 +6°C° 0 mm 2 mps 698 mmHg 90%
04:00 +6°C° 0 mm 2 mps 698 mmHg 90%
05:00 +5°C° 0 mm 2 mps 698 mmHg 91%
06:00 +5°C° 0 mm 2 mps 698 mmHg 90%
07:00 +5°C° 0 mm 2 mps 698 mmHg 90%
08:00 +6°C° 0 mm 2 mps 698 mmHg 89%
Show more

We Need Your Consent

Meteoprog and our Service Providers may store and access personal data such as cookies, device identifiers or other similar technologies on your device and process such data to personalise content and ads, as well as provide social media features and to analyse the traffic.

  • Store and/or access information on your device

    Cookies, device identifiers or other information can be stored or accessed on your device for the purposes indicated above.

  • Personalised ads and content, ad and content measurement, audience insights, and products development

    Ads and content can be personalised based on a profile. More data can be added to better personalise ads and content. Ad and content performance can be measured. Insights about the audience who saw the ads and content can be derived. Such data can be used to develop or improve user’s experience, systems and software.

By clicking ‘I Agree’ you will allow the use of indicated cookies, device identifiers, web beacons or other similar technologies. Your settings can be changed in the browser on your device.

For certain purposes, legitimate interests may be relied on, rather than consent. You can read more about this in our Privacy and Cookie Policy.